OH2TH Weather Reports


time (UTC)temp
C
wind
direction
speed
KPH
gust
KPH
rain 1hr
cm
rain 24hr
cm
rain mn
cm
humidity
%
barometer
mb
20260906051503 10 269 0.0 0.0 0.00 0.00 0.00 88 1000.0
20260906050003 9 157 0.0 0.0 0.00 0.00 0.00 90 1000.0
20260906044502 9 353 0.0 0.0 0.00 0.00 0.00 90 1000.0
20260906043001 9 186 0.0 0.0 0.00 0.00 0.00 94 1000.0
20260906041501 9 343 0.0 0.0 0.00 0.00 0.00 93 1000.0
20260906040001 9 232 0.0 0.0 0.00 0.00 0.00 94 1000.0
20260906034501 9 279 0.0 0.0 0.00 0.00 0.00 96 1000.0
20260906033000 9 89 0.0 0.0 0.00 0.00 0.00 96 1000.0
20260906031505 9 269 0.0 0.0 0.00 0.00 0.00 96 1000.0
20260906030004 8 94 0.0 0.0 0.00 0.00 0.00 97 1000.0
20260906024504 8 285 0.0 0.0 0.00 0.00 0.00 97 1000.0
20260906023004 8 210 0.0 0.0 0.00 0.00 0.00 97 1000.0
20260906021503 8 68 0.0 0.0 0.00 0.00 0.00 96 1000.0
20260906020003 8 141 0.0 0.0 0.00 0.00 0.00 96 1000.0
20260906014502 8 217 0.0 0.0 0.00 0.00 0.00 97 1000.0
20260906013002 8 326 0.0 0.0 0.00 0.00 0.00 97 1000.0
20260906011501 8 246 0.0 0.0 0.00 0.00 0.00 97 1000.0
20260906010001 8 186 0.0 0.0 0.00 0.00 0.00 97 1000.0
20260906004505 8 294 0.0 0.0 0.00 0.00 0.00 97 1000.0
20260906003004 8 293 0.0 0.0 0.00 0.00 0.00 97 1000.0
20260906001504 8 246 0.0 0.0 0.00 0.00 0.00 96 1000.0
20260906000003 8 173 0.0 0.0 0.00 0.00 0.00 96 1000.0
20260905234503 8 278 0.0 0.0 0.00 0.00 0.00 96 1000.0
20260905233002 9 147 0.0 0.0 0.00 0.00 0.00 96 1000.0
20260905231501 9 117 0.0 0.0 0.00 0.00 0.00 96 1000.0
20260905230001 9 142 0.0 0.0 0.00 0.00 0.00 96 1000.0
20260905224505 9 135 0.0 0.0 0.00 0.00 0.00 96 1000.0
20260905223004 10 230 0.0 0.0 0.00 0.00 0.00 96 1000.0
20260905221503 10 154 0.0 0.0 0.00 0.00 0.00 96 1000.0
20260905220002 10 173 0.0 0.0 0.00 0.00 0.00 96 1000.0
20260905214501 10 205 0.0 0.0 0.00 0.00 0.00 96 1000.0
20260905213001 10 135 0.0 0.0 0.00 0.00 0.00 96 1000.0
20260905211505 10 129 0.0 0.0 0.00 0.00 0.00 96 1000.0
20260905210004 10 32 0.0 0.0 0.00 0.00 0.00 96 1000.0
20260905204503 10 32 0.0 0.0 0.00 0.00 0.00 95 1000.0
20260905203002 11 142 0.0 0.0 0.00 0.00 0.00 94 1000.0
20260905201501 11 212 0.0 0.0 0.00 0.00 0.00 94 1000.0
20260905200004 11 145 0.0 0.0 0.00 0.00 0.00 93 1000.0
20260905194504 11 154 0.0 0.0 0.00 0.00 0.00 93 1000.0
20260905193003 11 154 0.0 0.0 0.00 0.00 0.00 93 1000.0
20260905191502 11 103 0.0 0.0 0.00 0.00 0.00 91 1000.0
20260905190001 12 76 0.0 0.0 0.00 0.00 0.00 89 1000.0
20260905184505 12 322 0.0 0.0 0.00 0.00 0.00 87 1000.0
20260905183004 13 135 0.0 0.0 0.00 0.00 0.00 86 1000.0
20260905181503 13 186 0.0 0.0 0.00 0.00 0.00 86 1000.0
20260905180002 13 164 0.0 0.0 0.00 0.00 0.00 86 1000.0
20260905174501 13 224 0.0 0.0 0.00 0.00 0.00 85 1000.0
20260905173005 14 224 0.0 0.0 0.00 0.00 0.00 85 1000.0
20260905171504 14 147 0.0 0.0 0.00 0.00 0.00 84 1000.0
20260905170003 14 15 0.0 0.0 0.00 0.00 0.00 81 1000.0
20260905164501 14 224 0.0 0.0 0.00 0.00 0.00 79 1000.0
20260905163001 15 224 0.0 0.0 0.00 0.00 0.00 74 1000.0
20260905161505 16 224 0.0 0.0 0.00 0.00 0.00 71 1000.0
20260905160004 16 241 0.0 0.0 0.00 0.00 0.00 69 1000.0
20260905154503 16 154 0.0 0.0 0.00 0.00 0.00 67 1000.0
20260905153002 17 144 0.0 0.0 0.00 0.00 0.00 69 1000.0
20260905151502 17 154 0.0 0.0 0.00 0.00 0.00 65 1000.0
20260905150002 17 62 0.0 0.0 0.00 0.00 0.00 63 1000.0
20260905144502 17 135 0.0 0.0 0.00 0.00 0.00 62 1000.0
20260905143001 17 345 0.0 0.0 0.00 0.00 0.00 59 1000.0
20260905141501 18 323 0.0 0.0 0.00 0.00 0.00 58 1000.0
20260905140001 18 135 0.0 0.0 0.00 0.00 0.00 50 990.0
20260905134501 18 349 0.0 0.0 0.00 0.00 0.00 53 990.0
20260905133000 18 32 0.0 0.0 0.00 0.00 0.00 53 990.0
20260905131505 18 188 0.0 0.0 0.00 0.00 0.00 52 990.0
20260905130005 18 121 0.0 0.0 0.00 0.00 0.00 53 990.0
20260905124504 18 120 0.0 0.0 0.00 7.47 0.00 54 990.0
20260905123004 17 348 0.0 0.0 0.00 7.47 0.00 64 990.0
20260905121504 17 126 0.0 0.0 0.00 7.47 0.00 67 990.0
20260905120003 17 255 0.0 0.0 0.00 7.47 0.00 65 990.0
20260905114503 17 123 0.0 0.0 0.00 14.71 0.00 62 990.0
20260905113003 18 231 0.0 0.0 0.00 14.71 0.00 54 990.0
20260905111502 18 102 0.0 0.0 0.00 14.71 0.00 55 990.0
20260905110002 18 56 0.0 0.0 0.00 14.71 0.00 55 990.0
20260905104502 18 185 0.0 0.0 0.00 14.71 0.00 57 990.0
20260905103002 18 181 0.0 0.0 0.00 14.71 0.00 53 990.0
20260905101501 18 93 0.0 0.0 0.00 14.71 0.00 58 990.0
20260905100001 18 337 0.0 0.0 0.00 14.71 0.00 57 990.0
20260905094501 18 185 0.0 0.0 0.00 14.71 0.00 63 990.0
20260905093001 18 126 0.0 0.0 0.00 14.71 0.00 60 990.0
20260905091501 18 185 0.0 0.0 0.00 14.71 0.00 64 990.0
20260905090001 18 213 0.0 0.0 0.00 14.71 0.00 65 990.0
20260905084501 17 244 0.0 0.0 0.00 14.71 0.00 68 990.0
20260905083000 16 178 0.0 0.0 0.00 14.71 0.00 72 990.0
20260905081505 16 224 0.0 0.0 0.00 14.71 0.00 77 990.0
20260905080004 16 103 0.0 0.0 0.00 14.71 0.00 82 990.0
20260905074504 15 195 0.0 0.0 0.00 14.71 0.00 80 990.0
20260905073004 15 147 0.0 0.0 0.00 14.71 0.00 82 990.0
20260905071504 13 211 0.0 0.0 0.00 14.71 0.00 87 990.0
20260905070004 13 343 0.0 0.0 0.00 14.71 0.00 96 990.0
20260905064503 12 140 0.0 0.0 0.00 14.71 0.00 99 990.0
20260905063002 12 124 0.0 0.0 0.00 14.71 0.00 95 990.0
20260905061501 10 124 0.0 0.0 0.00 14.71 0.00 97 990.0
20260905060005 8 117 0.0 0.0 0.00 14.71 0.00 98 990.0
20260905054504 8 230 0.0 0.0 0.00 14.71 0.00 98 990.0
20260905053003 7 124 0.0 0.0 0.00 14.71 0.00 98 990.0